This demonstration page uses our WeatherBlox Daily Observations layout. Learn more.

Left ArrowRight Arrow

40.92945, -100.16068

Hourly Observations for June 10, 2020

Temp ( °F °C ) Dew Point ( °F °C ) Humidity (%) Winds ( mph kmh ) Pressure ( in mb ) Visibility ( mi km ) Precip ( " mm )
12:15 am 00:15 Partly Cloudy 55 13 50 10.2 83 83 N 22 35 29.8 1009 10 16.0934 0 0
12:35 am 00:35 Partly Cloudy 56 13.1 50 10 82 82 NNW 23 37 29.81 1010 10 16.0934 0 0
12:55 am 00:55 Mostly Cloudy 56 13.1 50 9.9 81 81 NNW 24 39 29.82 1010 10 16.0934 0 0
1:15 am 01:15 Partly Cloudy 55 13 49 9.2 78 78 NNW 23 37 29.83 1010 10 16.0934 0 0
1:35 am 01:35 Clear 55 12.7 47 8.3 75 75 NNW 25 41 29.86 1011 10 16.0934 0 0
1:55 am 01:55 Clear 54 12.4 46 7.9 74 74 NNW 18 30 29.86 1011 10 16.0934 0 0
2:15 am 02:15 Clear 53 11.9 46 7.7 76 76 NNW 18 30 29.87 1012 10 16.0934 0 0
2:35 am 02:35 Clear 53 11.7 46 7.5 76 76 NNW 17 28 29.89 1012 10 16.0934 0 0
2:55 am 02:55 Clear 53 11.4 46 7.5 77 77 NW 15 24 29.89 1012 10 16.0934 0 0
3:15 am 03:15 Clear 51 10.4 46 7.5 82 82 NW 13 20 29.91 1013 10 16.0934 0 0
3:35 am 03:35 Clear 50 10.2 45 7.2 82 82 NW 14 22 29.92 1013 10 16.0934 0 0
3:55 am 03:55 Clear 50 10.1 45 7 81 81 NW 15 24 29.92 1013 10 16.0934 0 0
4:15 am 04:15 Clear 50 10 44 6.8 81 81 NW 14 22 29.93 1014 10 16.0934 0 0
4:35 am 04:35 Clear 49 9.3 44 6.7 84 84 NW 12 19 29.96 1014 10 16.0934 0 0
4:55 am 04:55 Clear 49 9.2 44 6.7 85 85 WNW 13 20 29.96 1015 10 16.0934 0 0
5:15 am 05:15 Clear 48 9 44 6.6 85 85 WNW 14 22 29.97 1015 10 16.0934 0 0
5:35 am 05:35 Clear 47 8.3 43 6.2 87 87 WNW 14 22 30 1016 10 16.0934 0 0
5:55 am 05:55 Clear 46 8 43 6 87 87 NW 13 20 30.01 1016 10 16.0934 0 0
6:15 am 06:15 Sunny 46 7.8 43 6 89 89 WNW 14 22 30.01 1016 10 16.0934 0 0
6:35 am 06:35 Sunny 46 8 43 6 87 87 WNW 14 22 30.02 1017 10 16.0934 0 0
6:55 am 06:55 Sunny 47 8.5 43 6 84 84 NW 14 22 30.03 1017 10 16.0934 0 0
7:15 am 07:15 Sunny 49 9.4 43 6.3 81 81 WNW 15 24 30.03 1017 10 16.0934 0 0
7:35 am 07:35 Sunny 50 9.8 44 6.8 82 82 WNW 12 19 30.04 1017 10 16.0934 0 0
7:55 am 07:55 Sunny 51 10.5 45 7 79 79 WNW 13 20 30.04 1017 10 16.0934 0 0
8:15 am 08:15 Sunny 53 11.4 45 7.3 76 76 WNW 13 20 30.04 1017 10 16.0934 0 0
8:35 am 08:35 Sunny 55 12.5 46 7.7 73 73 NW 14 22 30.03 1017 10 16.0934 0 0
8:55 am 08:55 Sunny 56 13.6 47 8.1 70 70 NW 16 26 30.03 1017 10 16.0934 0 0
9:15 am 09:15 Sunny 58 14.6 47 8.5 67 67 NW 16 26 30.03 1017 10 16.0934 0 0
9:35 am 09:35 Sunny 59 15 47 8.2 64 64 NW 16 26 30.03 1017 10 16.0934 0 0
9:55 am 09:55 Sunny 60 15.7 47 8.4 62 62 NW 20 31 30.03 1017 10 16.0934 0 0
10:15 am 10:15 Sunny 62 16.4 47 8.4 59 59 NW 21 33 30.02 1017 10 16.0934 0 0
10:35 am 10:35 Sunny 62 16.7 47 8.2 57 57 NW 21 33 30.02 1017 10 16.0934 0 0
10:55 am 10:55 Sunny 64 17.5 48 9 58 58 NNW 17 28 30.01 1016 10 16.0934 0 0
11:15 am 11:15 Sunny 64 17.8 48 9 57 57 NNW 24 39 30.02 1017 10 16.0934 0 0
11:35 am 11:35 Sunny 65 18.2 47 8.4 53 53 NNW 16 26 30.02 1017 10 16.0934 0 0
11:55 am 11:55 Sunny 66 18.7 47 8.3 51 51 NNW 20 31 30.02 1017 10 16.0934 0 0
12:15 pm 12:15 Sunny 67 19.3 48 9 51 51 NNW 21 33 30.02 1017 10 16.0934 0 0
12:35 pm 12:35 Sunny 67 19.7 47 8.3 48 48 NW 16 26 30.01 1016 10 16.0934 0 0
12:55 pm 12:55 Sunny 69 20.3 47 8.5 47 47 NNW 15 24 30.01 1016 10 16.0934 0 0
1:15 pm 13:15 Sunny 69 20.5 46 7.6 43 43 NNW 16 26 30.01 1016 10 16.0934 0 0
1:35 pm 13:35 Sunny 70 20.9 46 7.7 43 43 NNW 16 26 30 1016 10 16.0934 0 0
1:55 pm 13:55 Sunny 70 21.2 46 8 43 43 NNW 21 33 30 1016 10 16.0934 0 0
2:15 pm 14:15 Sunny 71 21.6 45 7.1 39 39 N 18 30 30 1016 10 16.0934 0 0
2:35 pm 14:35 Sunny 71 21.9 46 8 41 41 NNW 16 26 30 1016 10 16.0934 0 0
2:55 pm 14:55 Sunny 72 22 47 8.3 42 42 NNW 10 17 29.99 1016 10 16.0934 0 0
3:15 pm 15:15 Sunny 73 22.5 47 8.5 41 41 NNW 17 28 29.99 1016 10 16.0934 0 0
3:35 pm 15:35 Sunny 73 22.5 46 7.6 38 38 N 15 24 29.99 1016 10 16.0934 0 0
3:55 pm 15:55 Sunny 73 23 45 7.4 37 37 NW 15 24 29.99 1015 10 16.0934 0 0
4:15 pm 16:15 Partly Cloudy 72 22.4 46 8 40 40 NW 16 26 29.99 1016 10 16.0934 0 0
4:35 pm 16:35 Partly Cloudy 73 22.6 46 7.6 38 38 NW 15 24 29.99 1016 10 16.0934 0 0
4:55 pm 16:55 Mostly Cloudy 71 21.9 48 8.8 43 43 NW 16 26 30 1016 10 16.0934 0 0
5:15 pm 17:15 Mostly Cloudy 74 23.6 48 8.7 39 39 NNW 13 20 29.97 1015 10 16.0934 0 0
5:35 pm 17:35 Partly Cloudy 74 23.4 46 7.8 37 37 WNW 17 28 29.97 1015 10 16.0934 0 0
5:55 pm 17:55 Mostly Cloudy 74 23.1 47 8.2 39 39 NW 8 13 29.98 1015 10 16.0934 0 0
6:15 pm 18:15 Cloudy 73 23 49 9.5 42 42 NW 9 15 29.98 1015 10 16.0934 0 0
6:35 pm 18:35 Mostly Cloudy 74 23.3 47 8.3 38 38 WNW 13 20 29.97 1015 10 16.0934 0 0
6:55 pm 18:55 Mostly Cloudy 73 22.6 54 12.3 52 52 N 7 11 29.97 1015 10 16.0934 0 0
7:15 pm 19:15 Partly Cloudy 73 22.7 50 10.2 45 45 NW 7 11 29.97 1015 10 16.0934 0 0
7:35 pm 19:35 Partly Cloudy 72 22.4 48 8.8 42 42 WNW 9 15 29.97 1015 10 16.0934 0 0
7:55 pm 19:55 Sunny 70 21.2 53 11.9 56 56 NW 7 11 29.98 1015 10 16.0934 0 0
8:15 pm 20:15 Sunny 70 21 56 13.3 62 62 NNW 5 7 29.99 1016 10 16.0934 0 0
8:35 pm 20:35 Sunny 69 20.8 53 11.5 55 55 WNW 3 6 29.99 1016 10 16.0934 0 0
8:55 pm 20:55 Sunny 68 19.9 53 11.8 60 60 Calm 30.01 1016 10 16.0934 0 0
9:15 pm 21:15 Clear 65 18.5 53 11.6 64 64 SW 3 6 30.01 1016 10 16.0934 0 0
9:35 pm 21:35 Clear 63 17.2 53 11.7 70 70 Calm 30.04 1017 10 16.0934 0 0
9:55 pm 21:55 Clear 60 15.5 53 11.4 77 77 Calm 30.06 1018 10 16.0934 0 0
10:15 pm 22:15 Clear 58 14.6 53 11.5 82 82 ESE 3 6 30.07 1018 10 16.0934 0 0
10:35 pm 22:35 Clear 60 15.3 52 11.1 76 76 E 5 7 30.07 1018 10 16.0934 0 0
10:55 pm 22:55 Clear 58 14.6 52 11.3 81 81 E 3 6 30.09 1019 10 16.0934 0 0
11:15 pm 23:15 Clear 58 14.2 52 11.2 82 82 ENE 5 7 30.09 1019 10 16.0934 0 0
11:35 pm 23:35 Clear 56 13.2 51 10.8 86 86 Calm 30.11 1020 10 16.0934 0 0
11:55 pm 23:55 Clear 56 13.3 51 10.8 85 85 Calm 30.11 1020 7 11.26538 0 0

Powered by AerisWeather